This is the latest recevied weather packets stored in our database for station/object KO4ZGL-13. If no packets are shown the sender has not sent any weather packets the latest 10 day(s).
| Time | Temp. | Humidity | Pressure | Rain* | Wind** | Luminosity | Snow |
|---|---|---|---|---|---|---|---|
| 1778109418 | 26.11° C | 73% | 1013.4 hPa | 0 mm | - | 42 W/m² | - |
| 1778109117 | 26.67° C | 73% | 1013.8 hPa | 0 mm | - | 47 W/m² | - |
| 1778108813 | 26.67° C | 73% | 1013.6 hPa | 0 mm | - | 48 W/m² | - |
| 1778108510 | 26.67° C | 72% | 1013.7 hPa | 0 mm | - | 49 W/m² | - |
| 1778108206 | 26.67° C | 72% | 1013.8 hPa | 0 mm | - | 50 W/m² | - |
| 1778107903 | 27.22° C | 71% | 1013.7 hPa | 0 mm | - | 60 W/m² | - |
| 1778107600 | 27.22° C | 71% | 1013.9 hPa | 0 mm | - | 67 W/m² | - |
| 1778107296 | 27.22° C | 70% | 1013.8 hPa | 0 mm | - | 71 W/m² | - |
| 1778106993 | 27.22° C | 70% | 1013.9 hPa | 0 mm | - | 67 W/m² | - |
| 1778106689 | 27.78° C | 69% | 1013.8 hPa | 0 mm | - | 65 W/m² | - |
| 1778106386 | 27.78° C | 69% | 1013.9 hPa | 0 mm | - | 106 W/m² | - |
| 1778106082 | 27.78° C | 69% | 1014.1 hPa | 0 mm | - | 141 W/m² | - |
| 1778105780 | 27.78° C | 68% | 1013.8 hPa | 0 mm | - | 159 W/m² | - |
| 1778105478 | 27.78° C | 68% | 1013.5 hPa | 0 mm | - | 151 W/m² | - |
| 1778105174 | 28.33° C | 68% | 1013.6 hPa | 0 mm | - | 158 W/m² | - |
| 1778104869 | 28.33° C | 68% | 1013.5 hPa | 0 mm | - | 245 W/m² | - |
| 1778104566 | 28.89° C | 67% | 1013.4 hPa | 0 mm | - | 186 W/m² | - |
| 1778104262 | 28.89° C | 66% | 1013.6 hPa | 0 mm | - | 183 W/m² | - |
| 1778103959 | 28.89° C | 66% | 1013.5 hPa | 0 mm | - | 233 W/m² | - |
| 1778103656 | 29.44° C | 65% | 1013.5 hPa | 0 mm | - | 293 W/m² | - |
| 1778103354 | 30° C | 62% | 1013.3 hPa | 0 mm | - | 297 W/m² | - |
| 1778103051 | 30.56° C | 55% | 1013.3 hPa | 0 mm | - | 339 W/m² | - |
| 1778102748 | 30.56° C | 56% | 1013.4 hPa | 0 mm | - | 303 W/m² | - |
| 1778102443 | 30.56° C | 55% | 1013.3 hPa | 0 mm | - | 343 W/m² | - |
| 1778102139 | 30.56° C | 55% | 1013.5 hPa | 0 mm | - | 383 W/m² | - |
* Rain latest hour (hover to see other rain measurements)
** Current wind speed in m/s (hover to see current wind gust speed)